Wind_Speed
24 30 35 38 41 39 35 28 24 22 20 17 17 17 21 22 20 17 14 15 18 22 24 27 30 33 33 32 32 32 33 32
30 31 36 39 41 39 37 28 28 25 21 20 18 17 18 22 23 19 17 17 18 19 21 25 28 31 32 33 33 33 32 32
28 35 34 35 29 31 36 32 27 25 23 22 21 18 18 22 25 23 20 20 20 19 20 21 24 27 28 29 30 31 33 34
32 29 21 16 16 17 22 23 23 25 26 24 23 21 21 23 24 24 21 20 22 20 17 17 18 22 24 26 26 29 30 32
26 16 12 13 13 14 21 21 24 25 25 23 24 24 21 20 22 24 23 26 22 22 20 20 18 21 25 28 31 32 32 31
21 14 11 12 13 16 19 22 22 23 24 25 25 26 25 26 27 29 28 27 25 24 23 22 24 25 26 30 33 33 35 34
20 17 16 12 16 17 19 20 21 20 22 23 25 25 26 26 27 27 27 27 26 25 25 26 29 29 33 30 30 34 36 36
21 20 19 14 15 17 19 19 19 18 18 17 17 18 19 21 22 23 28 25 22 25 29 30 31 30 33 32 31 31 34 33
21 25 24 22 18 18 18 18 20 20 16 12 10 12 16 16 16 18 18 18 20 23 26 28 27 27 28 30 29 32 31 36
24 29 27 26 22 22 23 24 23 20 18 16 14 15 17 18 18 17 18 19 21 23 25 27 29 31 32 32 33 33 33 33
25 31 28 29 26 27 26 25 23 20 17 15 12 12 15 16 16 17 18 19 21 24 26 27 29 30 31 33 34 33 34 36
28 32 32 29 30 29 27 24 20 17 15 14 15 16 15 16 17 19 20 22 24 26 27 29 32 35 36 36 36 36 35 34
33 34 33 32 33 30 26 21 19 18 18 17 17 17 17 17 18 21 25 26 28 28 29 32 35 37 38 38 37 36 34 34
37 36 34 33 31 27 22 20 18 18 19 20 21 21 22 23 26 27 30 32 32 33 35 38 38 38 40 40 39 36 35 35
38 38 35 32 30 26 25 21 20 20 22 22 24 24 25 26 29 30 34 36 37 37 37 39 39 37 38 43 41 36 33 33
41 38 35 32 29 28 27 25 24 22 23 25 26 26 30 33 34 35 36 37 39 42 42 40 38 37 36 32 31 35 33 26
44 42 38 37 34 33 29 24 24 25 27 28 29 30 33 35 37 38 38 39 40 41 41 38 36 35 35 30 30 32 36 30
44 39 35 32 30 27 26 27 27 25 26 28 30 32 33 35 37 40 42 44 44 43 40 39 36 35 36 36 39 40 38 36
46 39 34 30 31 29 30 28 25 26 28 32 35 39 42 46 47 48 49 48 45 42 40 40 39 37 38 40 39 37 39 42
Wind_Direction
272 278 275 270 270 269 267 260 232 225 233 233 228 236 234 227 222 226 230 234 235 239 243 246 247 250 255 260 264 267 270 273
282 282 279 271 267 263 262 245 227 229 237 237 232 242 247 232 227 227 235 243 243 248 252 253 253 254 255 257 262 266 271 278
287 295 287 274 275 257 247 239 227 225 228 225 228 234 238 228 226 224 233 244 249 258 253 254 255 255 256 258 261 266 269 271
305 300 286 265 264 250 227 215 208 216 220 216 223 228 226 223 222 225 234 246 249 251 251 257 260 258 257 259 262 267 271 274
309 296 244 248 244 224 190 200 207 212 212 216 221 221 222 217 222 224 230 239 248 248 251 253 255 259 258 260 260 263 266 268
303 263 235 230 208 194 196 203 208 214 217 217 220 218 219 223 226 221 225 242 243 248 249 262 261 255 261 262 262 262 263 265
292 246 228 232 208 200 199 204 207 209 212 218 219 220 225 234 234 234 241 248 256 255 261 257 266 264 270 276 270 263 267 268
282 241 228 214 199 204 207 207 209 208 203 199 205 215 224 231 239 245 253 254 261 265 270 270 270 270 277 276 278 277 274 271
268 236 224 210 214 217 207 198 187 185 188 193 209 223 224 227 231 233 240 251 260 266 273 280 283 285 288 284 286 286 287 278
265 228 219 210 214 208 198 193 197 202 214 228 243 237 233 235 241 250 258 267 273 275 276 276 277 278 280 283 285 284 283 279
258 223 219 208 208 201 202 205 212 220 235 249 247 243 247 253 260 270 282 290 293 293 290 288 287 287 285 285 286 284 277 276
239 219 215 209 205 205 206 214 224 237 247 257 265 263 268 275 282 287 289 296 296 296 294 294 294 292 289 288 287 283 283 278
223 216 212 212 209 210 215 224 241 254 267 277 279 276 274 275 277 284 291 299 300 296 298 301 301 300 298 293 289 285 279 273
217 213 210 211 212 214 225 239 252 266 272 273 274 272 276 284 292 293 299 304 301 299 300 302 299 297 296 294 290 285 282 279
219 217 216 212 213 225 233 243 255 259 260 268 276 280 286 293 295 296 300 301 300 298 301 305 304 301 299 293 288 283 279 282
220 221 220 219 229 235 241 250 256 261 269 278 282 286 288 292 294 294 296 299 299 300 302 300 296 294 283 283 294 286 277 286
225 222 219 224 231 238 248 255 259 261 265 270 272 282 286 291 296 299 299 298 296 297 298 292 289 281 282 284 282 284 285 271
219 216 223 230 237 240 240 246 255 259 263 268 276 280 286 293 296 298 296 293 293 293 292 290 288 282 282 281 283 279 276 269
218 221 229 227 229 229 237 249 257 267 274 278 280 282 285 284 286 287 288 292 294 293 292 289 287 286 282 278 271 267 265 266
Height
3148 3144 3142 3141 3140 3141 3144 3146 3147 3149 3151 3152 3153 3154 3156 3158 3161 3163 3164 3166 3167 3168 3169 3170 3171 3171 3172 3172 3173 3173 3173 3173
3139 3137 3132 3130 3129 3130 3131 3135 3139 3142 3144 3146 3147 3149 3152 3154 3156 3159 3160 3162 3163 3163 3164 3164 3164 3165 3166 3166 3166 3167 3167 3166
3130 3126 3120 3117 3116 3116 3120 3125 3130 3135 3138 3140 3142 3144 3146 3148 3151 3153 3154 3156 3157 3157 3157 3157 3157 3158 3158 3160 3160 3160 3160 3160
3121 3115 3110 3109 3109 3109 3112 3118 3124 3128 3131 3133 3136 3139 3141 3142 3145 3148 3149 3151 3150 3151 3151 3151 3152 3152 3152 3153 3154 3154 3154 3153
3112 3109 3107 3107 3106 3106 3109 3114 3118 3121 3125 3128 3131 3133 3136 3139 3140 3142 3144 3143 3144 3145 3146 3145 3146 3145 3145 3146 3146 3145 3144 3145
3108 3106 3105 3105 3104 3105 3107 3110 3114 3116 3119 3122 3125 3128 3130 3132 3133 3134 3135 3136 3137 3138 3139 3139 3139 3139 3139 3138 3137 3137 3136 3136
3103 3103 3102 3102 3102 3103 3104 3106 3109 3112 3115 3117 3120 3122 3124 3127 3128 3129 3129 3130 3130 3130 3130 3130 3130 3131 3130 3130 3130 3129 3129 3128
3098 3099 3099 3098 3099 3100 3101 3102 3105 3109 3112 3114 3116 3118 3120 3121 3123 3124 3125 3125 3124 3123 3123 3122 3122 3122 3122 3122 3121 3120 3121 3120
3092 3093 3094 3094 3096 3097 3098 3100 3102 3105 3108 3110 3111 3112 3114 3116 3116 3117 3117 3118 3117 3117 3117 3116 3115 3115 3114 3113 3113 3112 3111 3110
3087 3087 3088 3090 3091 3093 3095 3096 3099 3101 3103 3105 3106 3107 3108 3109 3109 3110 3109 3110 3111 3110 3110 3109 3108 3106 3105 3103 3102 3101 3100 3098
3080 3081 3082 3084 3086 3089 3091 3093 3095 3097 3099 3101 3101 3102 3103 3103 3103 3104 3103 3103 3102 3101 3101 3100 3099 3097 3095 3093 3092 3090 3089 3089
3074 3075 3077 3079 3081 3084 3086 3088 3091 3093 3094 3095 3096 3095 3095 3096 3096 3095 3095 3094 3093 3093 3091 3091 3089 3086 3085 3083 3081 3081 3080 3079
3066 3069 3072 3075 3076 3078 3081 3083 3085 3086 3087 3087 3088 3088 3088 3088 3088 3088 3087 3085 3084 3084 3082 3080 3081 3080 3077 3074 3073 3071 3068 3067
3060 3062 3066 3069 3072 3074 3076 3077 3078 3079 3080 3080 3080 3080 3080 3080 3080 3079 3078 3076 3075 3075 3074 3072 3069 3066 3068 3065 3061 3061 3061 3060
3055 3057 3061 3064 3067 3068 3069 3070 3071 3072 3073 3073 3073 3072 3072 3071 3071 3070 3069 3068 3066 3064 3064 3062 3061 3059 3055 3057 3053 3049 3046 3048
3050 3052 3054 3057 3059 3060 3061 3062 3062 3063 3063 3065 3065 3064 3064 3062 3061 3060 3059 3057 3056 3055 3054 3053 3049 3050 3050 3047 3046 3042 3040 3038
3043 3045 3047 3049 3050 3051 3052 3053 3054 3055 3055 3054 3053 3052 3053 3052 3051 3049 3047 3047 3047 3045 3041 3043 3041 3038 3040 3037 3036 3033 3031 3029
3034 3037 3038 3039 3040 3041 3042 3043 3045 3044 3045 3044 3043 3044 3042 3041 3041 3041 3038 3036 3035 3034 3031 3031 3029 3028 3027 3025 3025 3022 3021 3020
3022 3026 3028 3029 3030 3031 3031 3032 3032 3034 3034 3035 3035 3034 3033 3032 3030 3029 3028 3025 3023 3021 3019 3018 3017 3017 3015 3013 3012 3009 3009 3007